When you browse on this site, cookies collect data to enhance your experience and personalize the content and advertising you see.
Visit our Privacy Policy to learn more. By continuing to use the site, you agree to this use of cookies and data.
  • In Austria
  • List of Countries
  • For 7 days
  • Water Temperature
  • Weather Map
  • News
  • Weather Widgets
  • user-avatar
    Login

    Hourly Weather Hlushky

    Today, 22 September, Sunday

    Time Temperature Precipitation Wind Pressure Humidity
    00:00 +10°C° 0.1 mm 6 mps 748 mmHg 80%
    01:00 +11°C° 0.1 mm 6 mps 747 mmHg 79%
    02:00 +13°C° 0 mm 5 mps 747 mmHg 77%
    03:00 +11°C° 0 mm 6 mps 747 mmHg 77%
    04:00 +11°C° 0 mm 6 mps 747 mmHg 76%
    05:00 +11°C° 0 mm 6 mps 746 mmHg 76%
    06:00 +13°C° 0 mm 6 mps 747 mmHg 74%
    07:00 +12°C° 0 mm 7 mps 747 mmHg 73%
    08:00 +14°C° 0 mm 7 mps 747 mmHg 71%
    09:00 +14°C° 0 mm 7 mps 747 mmHg 70%
    10:00 +14°C° 0 mm 7 mps 747 mmHg 68%
    11:00 +15°C° 0 mm 6 mps 747 mmHg 67%
    12:00 +15°C° 0 mm 6 mps 747 mmHg 65%
    13:00 +16°C° 0 mm 6 mps 747 mmHg 62%
    14:00 +16°C° 0 mm 6 mps 746 mmHg 60%
    15:00 +16°C° 0 mm 6 mps 746 mmHg 61%
    16:00 +16°C° 0 mm 5 mps 746 mmHg 62%
    17:00 +16°C° 0 mm 5 mps 745 mmHg 62%
    18:00 +15°C° 0 mm 4 mps 745 mmHg 70%
    19:00 +13°C° 0 mm 3 mps 745 mmHg 78%
    20:00 +12°C° 0 mm 3 mps 745 mmHg 86%
    21:00 +11°C° 0 mm 3 mps 745 mmHg 87%
    22:00 +11°C° 0 mm 3 mps 745 mmHg 88%
    23:00 +11°C° 0 mm 4 mps 746 mmHg 89%

    Tomorrow, 23 September, Monday

    Time Temperature Precipitation Wind Pressure Humidity
    00:00 +10°C° 0 mm 3 mps 746 mmHg 91%
    01:00 +10°C° 0 mm 3 mps 746 mmHg 92%
    02:00 +10°C° 0 mm 3 mps 746 mmHg 93%
    03:00 +10°C° 0 mm 3 mps 747 mmHg 92%
    04:00 +9°C° 0 mm 3 mps 747 mmHg 91%
    05:00 +9°C° 0 mm 3 mps 747 mmHg 90%
    06:00 +8°C° 0 mm 4 mps 747 mmHg 85%
    07:00 +8°C° 0 mm 4 mps 748 mmHg 79%
    08:00 +8°C° 0 mm 4 mps 748 mmHg 74%
    09:00 +10°C° 0 mm 4 mps 749 mmHg 67%
    10:00 +11°C° 0 mm 4 mps 749 mmHg 60%
    11:00 +12°C° 0 mm 4 mps 749 mmHg 53%
    12:00 +13°C° 0 mm 3 mps 749 mmHg 48%
    13:00 +13°C° 0 mm 3 mps 749 mmHg 44%
    14:00 +14°C° 0 mm 3 mps 749 mmHg 40%
    15:00 +14°C° 0 mm 3 mps 749 mmHg 38%
    16:00 +13°C° 0 mm 3 mps 749 mmHg 37%
    17:00 +13°C° 0 mm 3 mps 749 mmHg 36%
    18:00 +11°C° 0 mm 3 mps 749 mmHg 37%
    19:00 +10°C° 0 mm 3 mps 749 mmHg 38%
    20:00 +8°C° 0 mm 3 mps 749 mmHg 39%
    21:00 +7°C° 0 mm 3 mps 750 mmHg 42%
    22:00 +5°C° 0 mm 3 mps 750 mmHg 45%
    23:00 +4°C° 0 mm 3 mps 750 mmHg 49%

    Day after tomorrow, 24 September, Tuesday

    Time Temperature Precipitation Wind Pressure Humidity
    00:00 +4°C° 0 mm 3 mps 750 mmHg 52%
    01:00 +3°C° 0 mm 3 mps 750 mmHg 55%
    02:00 +3°C° 0 mm 3 mps 750 mmHg 58%
    03:00 +2°C° 0 mm 3 mps 750 mmHg 60%
    04:00 +2°C° 0 mm 3 mps 749 mmHg 62%
    05:00 +2°C° 0 mm 3 mps 749 mmHg 65%
    06:00 +3°C° 0 mm 3 mps 749 mmHg 60%
    07:00 +5°C° 0 mm 3 mps 749 mmHg 55%
    08:00 +8°C° 0 mm 3 mps 749 mmHg 51%
    09:00 +10°C° 0 mm 3 mps 749 mmHg 44%
    10:00 +12°C° 0 mm 3 mps 749 mmHg 38%
    11:00 +14°C° 0 mm 3 mps 749 mmHg 32%
    12:00 +14°C° 0 mm 3 mps 749 mmHg 30%
    13:00 +16°C° 0 mm 3 mps 748 mmHg 29%
    14:00 +17°C° 0 mm 2 mps 748 mmHg 28%
    15:00 +16°C° 0 mm 2 mps 748 mmHg 30%
    16:00 +16°C° 0 mm 2 mps 747 mmHg 33%
    17:00 +15°C° 0 mm 2 mps 747 mmHg 35%
    18:00 +13°C° 0 mm 3 mps 747 mmHg 35%
    19:00 +11°C° 0 mm 3 mps 747 mmHg 36%
    20:00 +9°C° 0 mm 3 mps 747 mmHg 36%
    21:00 +9°C° 0 mm 3 mps 747 mmHg 37%
    22:00 +8°C° 0 mm 3 mps 747 mmHg 38%
    23:00 +8°C° 0 mm 3 mps 747 mmHg 39%

    25 September, Wednesday

    Time Temperature Precipitation Wind Pressure Humidity
    00:00 +8°C° 0 mm 3 mps 747 mmHg 39%
    01:00 +9°C° 0 mm 3 mps 747 mmHg 39%
    02:00 +8°C° 0 mm 4 mps 747 mmHg 39%
    03:00 +8°C° 0 mm 4 mps 747 mmHg 41%
    04:00 +8°C° 0 mm 4 mps 747 mmHg 42%
    05:00 +10°C° 0 mm 4 mps 747 mmHg 44%
    06:00 +10°C° 0 mm 4 mps 747 mmHg 42%
    07:00 +11°C° 0 mm 4 mps 746 mmHg 41%
    08:00 +12°C° 0 mm 4 mps 746 mmHg 39%
    09:00 +13°C° 0 mm 4 mps 746 mmHg 38%
    10:00 +14°C° 0 mm 5 mps 746 mmHg 37%
    11:00 +16°C° 0 mm 5 mps 746 mmHg 36%
    12:00 +18°C° 0 mm 4 mps 746 mmHg 37%
    13:00 +19°C° 0 mm 4 mps 746 mmHg 38%
    14:00 +20°C° 0 mm 4 mps 745 mmHg 39%
    15:00 +19°C° 0 mm 4 mps 745 mmHg 42%
    16:00 +19°C° 0 mm 3 mps 745 mmHg 45%
    17:00 +19°C° 0 mm 3 mps 744 mmHg 48%
    18:00 +18°C° 0 mm 4 mps 744 mmHg 50%
    19:00 +17°C° 0 mm 4 mps 744 mmHg 51%
    20:00 +14°C° 0 mm 5 mps 744 mmHg 53%
    21:00 +14°C° 0.1 mm 4 mps 744 mmHg 56%
    22:00 +14°C° 0.1 mm 4 mps 744 mmHg 59%
    23:00 +14°C° 0.1 mm 3 mps 744 mmHg 63%

    26 September, Thursday

    Time Temperature Precipitation Wind Pressure Humidity
    00:00 +14°C° 0 mm 4 mps 744 mmHg 63%
    01:00 +14°C° 0 mm 4 mps 744 mmHg 63%
    02:00 +14°C° 0 mm 4 mps 744 mmHg 62%
    03:00 +14°C° 0 mm 4 mps 744 mmHg 67%
    04:00 +14°C° 0 mm 4 mps 744 mmHg 71%
    05:00 +14°C° 0 mm 5 mps 744 mmHg 75%
    06:00 +14°C° 0.6 mm 5 mps 743 mmHg 78%
    07:00 +13°C° 0.6 mm 5 mps 743 mmHg 82%
    08:00 +13°C° 0.6 mm 6 mps 743 mmHg 85%
    09:00 +13°C° 1 mm 6 mps 743 mmHg 86%
    10:00 +11°C° 1 mm 6 mps 744 mmHg 86%
    11:00 +11°C° 1 mm 7 mps 744 mmHg 87%
    12:00 +11°C° 0.9 mm 7 mps 743 mmHg 87%
    13:00 +11°C° 0.9 mm 6 mps 743 mmHg 88%
    14:00 +11°C° 0.9 mm 6 mps 743 mmHg 88%
    15:00 +11°C° 0.1 mm 6 mps 743 mmHg 87%
    16:00 +12°C° 0.1 mm 5 mps 743 mmHg 86%
    17:00 +12°C° 0.1 mm 5 mps 743 mmHg 85%
    18:00 +12°C° 0 mm 4 mps 743 mmHg 88%
    19:00 +11°C° 0 mm 4 mps 743 mmHg 92%
    20:00 +11°C° 0 mm 3 mps 743 mmHg 95%
    21:00 +11°C° 0 mm 3 mps 743 mmHg 94%
    22:00 +11°C° 0 mm 3 mps 743 mmHg 94%
    23:00 +11°C° 0 mm 3 mps 743 mmHg 94%

    27 September, Friday

    Time Temperature Precipitation Wind Pressure Humidity
    00:00 +11°C° 0 mm 3 mps 743 mmHg 94%
    01:00 +11°C° 0 mm 3 mps 743 mmHg 95%
    02:00 +11°C° 0 mm 3 mps 743 mmHg 95%
    03:00 +11°C° 0 mm 3 mps 743 mmHg 95%
    04:00 +10°C° 0 mm 3 mps 743 mmHg 95%
    05:00 +10°C° 0 mm 3 mps 743 mmHg 95%
    06:00 +11°C° 0 mm 3 mps 743 mmHg 92%
    07:00 +12°C° 0 mm 4 mps 743 mmHg 89%
    08:00 +13°C° 0 mm 4 mps 743 mmHg 86%
    09:00 +14°C° 0 mm 4 mps 743 mmHg 83%
    10:00 +14°C° 0 mm 5 mps 743 mmHg 80%
    11:00 +15°C° 0 mm 5 mps 743 mmHg 77%
    12:00 +15°C° 0 mm 5 mps 743 mmHg 76%
    13:00 +15°C° 0 mm 5 mps 743 mmHg 76%
    14:00 +15°C° 0 mm 5 mps 743 mmHg 75%
    15:00 +14°C° 0.1 mm 4 mps 743 mmHg 77%
    16:00 +14°C° 0.1 mm 4 mps 744 mmHg 79%
    17:00 +14°C° 0.1 mm 3 mps 744 mmHg 81%
    18:00 +13°C° 0 mm 3 mps 744 mmHg 86%
    19:00 +12°C° 0 mm 3 mps 745 mmHg 90%
    20:00 +11°C° 0 mm 3 mps 745 mmHg 94%
    21:00 +10°C° 0 mm 3 mps 746 mmHg 95%
    22:00 +10°C° 0 mm 3 mps 746 mmHg 95%
    23:00 +9°C° 0 mm 3 mps 746 mmHg 95%
    Show more